Regional Weather Roundup
Issued by NWS Wakefield, VA

Home | Current Version | Previous Version | Graphics & Text | Print | Product List | Glossary On
Versions: 1 2 3 4 5 6 7 8 9 10 11 12 13 14 15 16 17 18 19 20 21 22 23 24 25 26 27 28 29 30 31 32 33 34 35 36 37 38 39 40 41 42 43 44 45 46 47 48 49 50
727
ASUS41 KAKQ 261515
RWRAKQ

REGIONAL WEATHER ROUNDUP
NATIONAL WEATHER SERVICE WAKEFIELD VA
1100 AM EDT SAT MAY 26 2018

Note: "fair" indicates few or no clouds below 12,000 feet with no
significant weather and/or obstructions to visibility. * = Denotes
station may not report precipitation (e.g., rain,snow,etc.),
thunder or fog.

VAZ042-051-052>054-056-261600-
NORTHERN VIRGINIA

CITY           SKY/WX    TMP DP  RH WIND       PRES   REMARKS
WASH NATIONAL  FAIR      82  69  64 S10       29.88F
DULLES         PTSUNNY   84  70  62 VRB5      29.88F
FORT BELVOIR   FAIR      84  70  62 SE5       29.88F
QUANTICO       PTSUNNY   79  73  82 S7        29.89F
FREDERICKSBRG* FAIR      83  70  65 SW8       29.90S
STAFFORD*      FAIR      81  71  71 SW6       29.94S
WARRENTON      FAIR      83  67  59 SW5       29.90S
CULPEPER*      FAIR      83  69  61 S5        29.91S
MANASSAS*      FAIR      83  71  67 SW6       29.89F
LEESBURG*      FAIR      86  72  62 CALM      29.89F
WINCHESTER     FAIR      81  68  65 SE3       29.92S
FRONT ROYAL*   FAIR      81  70  69 S6        29.90S
LURAY*         FAIR      81  66  61 S5        29.92S
$$

VAZ048-049-060>072-079>083-261600-
CENTRAL AND SOUTH CENTRAL VIRGINIA

CITY           SKY/WX    TMP DP  RH WIND       PRES   REMARKS
RICHMOND       PTSUNNY   83  70  64 SW16      29.93S
CHESTERFIELD*  FAIR      82  71  69 SW12      29.95R
PETERSBURG*    FAIR      80  69  69 SW9       29.95F
HANOVER        FAIR      81  69  67 SW8       29.94S
TAPPAHANNOCK*  FAIR      83  71  65 SW14      29.93R
QUINTON*       FAIR      80  70  72 SW9G16    29.93S
CHARLOTTSVILLE FAIR      81  69  67 S8        29.92S
GORDONSVILLE*  FAIR      80  71  75 S9        29.92R
ORANGE*        FAIR      79  68  69 S7        29.91S
LOUISA*        FAIR      78  68  72 SW9G17    29.97S
BUMPASS*       FAIR      79  69  72 SW10G16   29.92S
FARMVILLE*     PTSUNNY  N/A N/A N/A S12       29.94S
CREWE*         PTSUNNY   80  76  86 S12       29.95F
FORT PICKETT*  PTSUNNY   81  71  71 SW17G23   29.97S
CHASE CITY*    CLOUDY    76  74  92 SW5       29.99R
CLARKSVILLE*   CLOUDY    75  72  88 SW12G17   29.98S
SOUTH HILL*    CLOUDY    77  72  85 SW13      30.04S
LAWRENCEVILLE* PTSUNNY   79  71  76 SW10      29.97F
EMPORIA*       PTSUNNY   79  68  69 S8        29.99S
$$

VAZ088>098-261600-
SOUTHEAST VIRGINIA

CITY           SKY/WX    TMP DP  RH WIND       PRES   REMARKS
NORFOLK        FAIR      84  71  65 SW14G22   29.95F
VIRGINIA BEACH PTSUNNY   82  70  66 SW15      29.95F
NORFOLK NAVAL  PTSUNNY   83  70  64 SW12G20   29.97S
WEST POINT*    FAIR      82  69  65 SW10      29.94S
SALUDA*        FAIR      83  72  68 W14       29.92F
NEWPORT NEWS   FAIR      83  71  67 SW13G22   29.95S
LANGLEY AFB    FAIR      82  72  70 NW14      29.95S
FORT EUSTIS    FAIR      82  72  70 W9        29.93S
WILLIAMSBURG*  FAIR      84  68  58 SW13G21   29.96S
HR EXEC AP*    PTSUNNY   82  70  65 SW10G16   29.97S
FRANKLIN*      PTSUNNY   81  70  70 SW9       29.97F
US460-WAKEFLD  FAIR      82  71  69 SW7       29.96S
$$

VAZ020-022-025-037-045-261600-
WEST CENTRAL AND SOUTHWEST VIRGINIA

CITY           SKY/WX    TMP DP  RH WIND       PRES   REMARKS
STAUNTON*      FAIR      78  66  67 S3        29.96S
WAYNESBORO*    FAIR      76  67  73 SW6       29.97S
HOT SPRINGS VA CLOUDY    67  63  87 W5        30.09R
LYNCHBURG      FAIR      79  68  69 SW9       29.97S
DANVILLE       FAIR      78  71  79 SW9       29.97F
SOUTH BOSTON*  CLOUDY    78  71  78 S8G20     29.98S
MARTINSVILLE   CLOUDY    75  67  78 CALM      30.01S
ROANOKE        CLOUDY    77  65  66 VRB5      29.99S
BLACKSBURG     CLOUDY    72  66  83 SW5       30.05F
DUBLIN*        CLOUDY    73  66  78 SW3       30.03S
MARION*        RAIN      67  66  98 W6        30.08S
HILLSVILLE*    CLOUDY    69  67  90 CALM      30.04F
RICHLANDS*     LGT RAIN  65  49  56 CALM      30.06S
WISE*          RAIN      64  64 100 SW5       30.07S
ABINGDON*      RAIN      68  68 100 W5        30.05R
$$

MDZ021>025-VAZ099-100-261600-
SOUTHERN MARYLAND AND THE DELMARVA PENINSULA

CITY           SKY/WX    TMP DP  RH WIND       PRES   REMARKS
PATUXENT RIVER FAIR      87  68  52 SW10G18   29.89F
BAY BRIDGE APT FAIR      84  70  61 SW7       29.88S
LEONARDTOWN    FAIR      81  68  65 SW10G17   29.92S
DOVER          FAIR      83  70  65 SW9       29.87S
GEORGETOWN     FAIR      83  67  58 W9        29.89S
EASTON         SUNNY     82  70  65 SW9       29.93S
CAMBRIDGE      SUNNY     82  70  65 SW9G15    29.90S
SALISBURY      FAIR      84  69  60 SW10      29.90S
TANGIER        FAIR      79  75  89 S7        29.92R
OCEAN CITY     FAIR      84  70  62 SW17G24   29.90F
WALLOPS ISLAND FAIR      87  69  54 W10       29.92S
ACCOMACK*      FAIR      82  70  65 SW13G20   29.93S
$$

NCZ012>017-030>032-261600-
NORTH CENTRAL AND EASTERN NORTH CAROLINA

CITY           SKY/WX    TMP DP  RH WIND       PRES   REMARKS
ROANOKE RAPIDS FAIR      79  72  78 SW10      29.99S
RALEIGH        CLOUDY    75  71  87 SW10      30.00F
ELIZABETH CITY FAIR      81  74  79 S12       30.00R
AHOSKIE*       PTSUNNY   78  70  77 S6        29.99F
EDENTON*       FAIR      80  71  73 SW8       30.01S
CURRITUCK*     NOT AVBL
KILL DEVIL HLS FAIR      81  68  65 SW7       29.99S
MANTEO         PTSUNNY   81  68  65 W8        30.01S
CAPE HATTERAS  FAIR      80  73  79 SW8       30.03S
TARBORO*       NOT AVBL
GOLDSBORO      FAIR      81  71  70 SW12      29.99F
WASHINGTON     PTSUNNY   79  70  72 SW8       30.02S
GREENVILLE     FAIR      79  70  73 W6        30.03S
NEW BERN       FAIR      81  70  69 SW9       30.02F
WILMINGTON     FAIR      83  70  64 S7        30.01F
$$

VAZ048-261600-
ELSEWHERE

CITY           SKY/WX    TMP DP  RH WIND       PRES   REMARKS
HARRISBURG PA  FAIR      83  68  60 NW6       29.84F
BALTIMORE      FAIR      85  70  60 W8        29.86F
ANNAPOLIS      FAIR     N/A N/A N/A SW6       29.87F
ANDREWS AFB    FAIR      83  68  59 CALM      29.88F
PHILADELPHIA   PTSUNNY   79  67  66 SW9       29.86F
HENDERSON NC   PTSUNNY   72  67  85 SW10      30.00S
GREENSBORO     CLOUDY    75  69  81 SW8       29.99S
ROCKY MOUNT    PTSUNNY   79  69  71 SW7       30.00F
$$

VAZ100-261600-
MARINE

STATION/POSITION TIME  TEMP    WIND        PRES    WAVE   SWELL
                       AIR SEA DIR/SP/G            HT/PER HT/PER
                 (UTC) (F)     (DEG/KT/KT) (MB)    (FT/S) (FT/S)
BRANDYWINE LGT   1448   78     250/ 16/ 17 1012.2F
CAPE MAY NJ      1436   75 67  270/  3/  4 1011.5F
LEWES DE         1436   83 66  270/ 11/ 16 1011.9R
15NM E FENWICK I 1450   65 63  200/ 16/ 17 1012.7S   3/ 8   2/ 8
OCEAN-CITY-INLET 1436   80 63  260/ 16/ 19 1012.9F
WACHAPREAGUE VA  1448   82 77  140/ 11/ 16 1013.4S
THOMAS POINT MD  1500   73 70  160/  9/ 10 1012.5F
GOOSES REEF MD   1500   76     210/  6/  8 1013.0    1/ 3
COVE POINT MD    1448   80     280/ 11/ 15 1012.9R
SOLOMONS ISLAND  1448   80 72  240/  7/  9 1012.3F
BISHOPS HEAD MD  1448   78 76  220/  8/ 10 1013.3R
PINEY POINT MD   1448          260/  4/  6   N/A
POTOMAC MD       1500   79 76  240/  8/ 12 1012.1    1/ 3
CAMBRIDGE MD     1448   84 74              1013.3F
LEWISETTA VA     1448   81 74  240/  9/ 11 1012.8R
RAPPAHANNOCK LGT 1448          180/ 12/ 14 1014.4R
STINGRAY PT      1500   79 73  250/ 12/ 16 1016.5    1/ 2
YORK RVR RNG VA  1448   80     240/ 14/ 17 1014.5S
YORKTOWN VA      1448   80 75  220/ 11/ 16 1013.4S
DOMINION TERM VA 1448   78     220/ 10/ 13 1014.8S
KIPTOPEKE VA     1436      72  220/  9/ 10   N/A
CAPE HENRY VA    1448   81     200/  8/ 14 1013.0F
WILLOUBY STN VA  1448   78     240/ 10/ 12 1013.7F
S CRANEY ISL VA  1448   81     200/ 10/ 15 1014.4F
CAPE HENRY BUOY  1430      71                N/A     2/ 9
1ST LANDING BUOY 1500   77 73  260/  8/ 10 1014.2    1
64NM E OF VA BCH 1450   72 70  220/ 12/ 12 1016.1R   3/ 8   2/ 8
DUCK PIER NC     1448   78 60  240/ 12/ 14 1015.6R
44100 DUCK FRF   1445      72                N/A     2/ 9
44056 DUCK FRF   1430      65                N/A     1/ 9
OREGON INLET NC  1436   77 78  200/ 15/ 16 1016.1R
HATTERAS NC      1448   78 76  220/  7/ 11 1016.5S
DIAMOND SHLS NC  1500   77 78  230/ 12/ 14 1017.3
CAPE LOOKOUT NC  1500          220/ 11/ 13 1017.3R
$$




USA.gov is the U.S. government's official web portal to all federal, state and local government web resources and services.